Flag for Iran Weather past 2 weeks in Rafsanjan, Iran

Now
73 °F

Scattered clouds.


Feels Like: 75 °F
Forecast: 49 / 77 °F
Wind: 18 mph from West

Location: Kerman Airport

Current Time: Oct 22, 2014 at 11:46:26 AM

Latest Report: Oct 22, 2014 at 11:00 AM


Visibility: N/A

Pressure: 30.21 "Hg

Humidity: 19%

Dew point: 28 °F

Location of RafsanjanLocation

Historic Weather in Rafsanjan — Graph

°F

Rafsanjan temperature yesterday

Maximum temperature yesterday: 81 °F (at 12:30 PM)
Minimum temperature yesterday: 46 °F (at 5:30 AM)
Average temperature yesterday: 68 °F

Past Weeks' High & Low Weather Summary

 TemperatureHumidityPressure
High86 °F (Oct 7, 12:30 PM)56% (Oct 13, 5:30 AM)30.36 "Hg (Oct 13, 5:30 AM)
Low39 °F (Oct 13, 5:30 AM)5% (Oct 14, 11:00 AM)30.04 "Hg (Oct 18, 3:00 PM)
Average67 °F22%30.21 "Hg
* Reported Oct 7 10:30 AM — Oct 22 10:30 AM, Rafsanjan, Weather by CustomWeather, © 2014

Note: Actual official high and low records may vary slightly from our data, if they occured in-between our weather recording intervals... More about our weather records

Advertising

Rafsanjan weather history for previous 24 hours

 ConditionsComfort  
Time TempWeatherWind HumidityBarometerVisibility
10:30 AM
Oct 22
73 °FPassing clouds.14 mph20%30.21 "HgN/A
9:30 AM72 °FPassing clouds.16 mph23%30.21 "HgN/A
9:00 AM73 °FPassing clouds.14 mph23%30.24 "HgN/A
8:30 AM72 °FPassing clouds.14 mph23%30.21 "HgN/A
7:30 AM59 °FPassing clouds.9 mph34%30.21 "HgN/A
6:30 AM54 °FPassing clouds.7 mph41%30.21 "HgN/A
5:30 AM55 °FClear.7 mph38%30.21 "Hg10 mi
4:30 AM55 °FClear.7 mph38%30.18 "Hg10 mi
3:30 AM55 °FClear.5 mph38%30.18 "Hg10 mi
2:30 AM61 °FClear.5 mph34%30.18 "Hg10 mi
1:30 AM64 °FClear.7 mph30%30.21 "Hg10 mi
12:30 AM64 °FClear.12 mph28%30.21 "Hg10 mi
11:30 PM
Oct 21
64 °FClear.7 mph26%30.21 "Hg10 mi
10:30 PM68 °FClear.23 mph24%30.18 "Hg10 mi
9:30 PM68 °FClear.21 mph24%30.18 "Hg10 mi
8:30 PM70 °FClear.16 mph20%30.18 "Hg10 mi
7:30 PM70 °FClear.9 mph16%30.18 "Hg10 mi
6:30 PM72 °FPassing clouds.14 mph16%30.18 "HgN/A
5:30 PM75 °FPassing clouds.14 mph14%30.15 "HgN/A
4:30 PM79 °FPassing clouds.16 mph12%30.12 "HgN/A
4:00 PM79 °FPassing clouds.21 mph12%30.12 "HgN/A
3:30 PM81 °FPassing clouds.18 mph11%30.12 "HgN/A
3:00 PM81 °FPassing clouds.21 mph10%30.12 "HgN/A
2:30 PM81 °FPassing clouds.12 mph11%30.12 "HgN/A
2:00 PM81 °FPassing clouds.12 mph12%30.12 "HgN/A
1:30 PM81 °FPassing clouds.16 mph13%30.15 "HgN/A
1:00 PM81 °FPassing clouds.7 mph13%30.15 "HgN/A
12:30 PM81 °FPassing clouds.14 mph14%30.18 "HgN/A
11:30 AM79 °FScattered clouds.7 mph15%30.21 "HgN/A
11:00 AM77 °FScattered clouds.14 mph17%30.21 "HgN/A
Weather by CustomWeather, © 2014

See weather overviewHow to use our weather pages